Birmingham, AL

4:36 AM CDT on July 27, 2017 (GMT -0500)
Birmingham International

Weather History for KBHM - May, 2013

Change the Weather History Date:

Thursday, May 9, 2013

  Actual Average Record
Temperature  
Mean Temperature 70 °F 69 °F  
Max Temperature 84 °F 80 °F 94 °F (1962)
Min Temperature 55 °F 58 °F 40 °F (1984)
Cooling Degree Days 5 5  
Month to date cooling degree days 10 38  
Year to date cooling degree days 87 122  
Growing Degree Days 18 (Base 50)    
Moisture  
Dew Point 56 °F    
Average Humidity 69    
Maximum Humidity 100    
Minimum Humidity 37    
Precipitation  
Precipitation 0.00 in 0.16 in 2.00 in (1998)
Month to date precipitation 2.99 1.47  
Year to date precipitation 27.54 20.45  
Sea Level Pressure  
Sea Level Pressure 30.09 in    
Wind  
Wind Speed 4 mph (SSW)    
Max Wind Speed 15 mph    
Max Gust Speed 38 mph    
Visibility 10 miles    
Events      
T = Trace of Precipitation, MM = Missing Value Source: NWS Daily Summary

Daily Weather History Graph

Daily Weather History Graph

Search for Another Location

Airport or City:

Trip Planner

Search our weather history database for the weather conditions in past years. The results will help you decide how hot, cold, wet, or windy it might be!

Date:

Astronomy

May. 09, 2013 Rise Set
Actual Time 5:50 AM CDT 7:36 PM CDT
Civil Twilight 5:23 AM CDT 8:03 PM CDT
Nautical Twilight 4:51 AM CDT 8:36 PM CDT
Astronomical Twilight 4:16 AM CDT 9:10 PM CDT
Moon 5:33 AM CDT (5/9) 7:31 PM CDT (5/9)
Length of Visible Light 14h 39m
Length of Day
13h 45m
Waning Crescent, 0% of the Moon is Illuminated
May 9
Waning Crescent
May 9
New
May 17
First Quarter
May 24
Full
May 31
Last Quarter

Hourly Weather History & Observations

Time (CDT) Temp. Heat Index Dew Point Humidity Pressure Visibility Wind Dir Wind Speed Gust Speed Precip Events Conditions
12:53 AM 59.0 °F - 57.0 °F 93% 30.08 in 10.0 mi Calm Calm - N/A   Clear
1:53 AM 59.0 °F - 55.9 °F 90% 30.07 in 10.0 mi Calm Calm - N/A   Clear
2:53 AM 57.9 °F - 55.9 °F 93% 30.08 in 10.0 mi Calm Calm - N/A   Clear
3:53 AM 57.0 °F - 55.0 °F 93% 30.08 in 9.0 mi Calm Calm - N/A   Clear
4:53 AM 55.9 °F - 55.0 °F 97% 30.08 in 9.0 mi Calm Calm - N/A   Clear
5:53 AM 57.0 °F - 55.0 °F 93% 30.09 in 7.0 mi Calm Calm - N/A   Clear
6:53 AM 59.0 °F - 55.9 °F 90% 30.12 in 7.0 mi Calm Calm - N/A   Clear
7:53 AM 64.0 °F - 59.0 °F 84% 30.13 in 10.0 mi Calm Calm - N/A   Clear
8:53 AM 70.0 °F - 57.0 °F 63% 30.14 in 10.0 mi Calm Calm - N/A   Clear
9:53 AM 75.9 °F - 55.0 °F 48% 30.14 in 10.0 mi WSW 8.1 mph - N/A   Clear
10:53 AM 78.1 °F - 55.0 °F 45% 30.14 in 10.0 mi West 3.5 mph - N/A   Partly Cloudy
11:53 AM 78.8 °F - 53.6 °F 42% 30.17 in 10.0 mi Variable 3.5 mph - N/A   Scattered Clouds
12:53 PM 80.1 °F 80.0 °F 54.0 °F 40% 30.14 in 10.0 mi SW 8.1 mph - N/A   Mostly Cloudy
1:53 PM 81.0 °F 80.4 °F 53.1 °F 38% 30.12 in 10.0 mi South 8.1 mph - N/A   Partly Cloudy
2:53 PM 82.0 °F 81.3 °F 54.0 °F 38% 30.09 in 10.0 mi SW 10.4 mph - N/A   Scattered Clouds
3:53 PM 82.9 °F 81.8 °F 53.1 °F 36% 30.07 in 10.0 mi SSW 6.9 mph - N/A   Scattered Clouds
4:53 PM 82.0 °F 81.3 °F 54.0 °F 38% 30.06 in 10.0 mi SSW 6.9 mph - N/A   Scattered Clouds
5:53 PM 82.0 °F 81.3 °F 54.0 °F 38% 30.04 in 10.0 mi SSE 9.2 mph - N/A   Scattered Clouds
6:53 PM 80.1 °F 80.1 °F 55.0 °F 42% 30.04 in 10.0 mi South 11.5 mph - N/A   Partly Cloudy
7:53 PM 77.0 °F - 55.9 °F 48% 30.07 in 10.0 mi SSW 6.9 mph - N/A   Partly Cloudy
8:53 PM 73.9 °F - 57.0 °F 55% 30.08 in 10.0 mi South 4.6 mph - N/A   Clear
9:53 PM 73.0 °F - 57.9 °F 59% 30.08 in 10.0 mi SSW 4.6 mph - N/A   Clear
10:53 PM 72.0 °F - 57.9 °F 61% 30.08 in 10.0 mi South 3.5 mph - N/A   Clear
11:53 PM 69.1 °F - 59.0 °F 70% 30.08 in 10.0 mi Calm Calm - N/A   Clear